Time,TemperatureF,DewpointF,PressureIn,WindDirection,WindDirectionDegrees,WindSpeedMPH,WindSpeedGustMPH,Humidity,HourlyPrecipIn,Conditions,Clouds,dailyrainin,SoftwareType,DateUTC
2013-05-09 00:03:00,60.0,-99.9,-100.00,North,-999,-999.0,-999.0,-999,0.00,,,0.00,,2013-05-09 04:03:00,
2013-05-09 00:13:00,60.0,-99.9,-100.00,North,-999,-999.0,-999.0,-999,0.00,,,0.00,,2013-05-09 04:13:00,
2013-05-09 00:33:00,58.0,-99.9,-100.00,North,-999,-999.0,-999.0,-999,0.00,,,0.00,,2013-05-09 04:33:00,
2013-05-09 00:43:00,58.0,-99.9,-100.00,North,-999,-999.0,-999.0,-999,0.00,,,0.00,,2013-05-09 04:43:00,
2013-05-09 00:53:00,58.0,-99.9,-100.00,North,-999,-999.0,-999.0,-999,0.00,,,0.00,,2013-05-09 04:53:00,
2013-05-09 01:02:00,58.0,-99.9,-100.00,North,-999,-999.0,-999.0,-999,0.00,,,0.00,,2013-05-09 05:02:00,
2013-05-09 01:12:00,58.0,-99.9,-100.00,North,-999,-999.0,-999.0,-999,0.00,,,0.00,,2013-05-09 05:12:00,
2013-05-09 01:32:00,57.0,-99.9,-100.00,North,-999,-999.0,-999.0,-999,0.00,,,0.00,,2013-05-09 05:32:00,
2013-05-09 01:43:00,57.0,-99.9,-100.00,North,-999,-999.0,-999.0,-999,0.00,,,0.00,,2013-05-09 05:43:00,
2013-05-09 01:52:00,57.0,-99.9,-100.00,North,-999,-999.0,-999.0,-999,0.00,,,0.00,,2013-05-09 05:52:00,
2013-05-09 02:02:00,57.0,-99.9,-100.00,North,-999,-999.0,-999.0,-999,0.00,,,0.00,,2013-05-09 06:02:00,
2013-05-09 02:12:00,57.0,-99.9,-100.00,North,-999,-999.0,-999.0,-999,0.00,,,0.00,,2013-05-09 06:12:00,
2013-05-09 02:32:00,55.0,-99.9,-100.00,North,-999,-999.0,-999.0,-999,0.00,,,0.00,,2013-05-09 06:32:00,
2013-05-09 02:42:00,55.0,-99.9,-100.00,North,-999,-999.0,-999.0,-999,0.00,,,0.00,,2013-05-09 06:42:00,
2013-05-09 02:52:00,55.0,-99.9,-100.00,North,-999,-999.0,-999.0,-999,0.00,,,0.00,,2013-05-09 06:52:00,
2013-05-09 03:02:00,55.0,-99.9,-100.00,North,-999,-999.0,-999.0,-999,0.00,,,0.00,,2013-05-09 07:02:00,
2013-05-09 03:12:00,55.0,-99.9,-100.00,North,-999,-999.0,-999.0,-999,0.00,,,0.00,,2013-05-09 07:12:00,
2013-05-09 03:32:00,53.0,-99.9,-100.00,North,-999,-999.0,-999.0,-999,0.00,,,0.00,,2013-05-09 07:32:00,
2013-05-09 03:43:00,53.0,-99.9,-100.00,North,-999,-999.0,-999.0,-999,0.00,,,0.00,,2013-05-09 07:43:00,
2013-05-09 03:52:00,53.0,-99.9,-100.00,North,-999,-999.0,-999.0,-999,0.00,,,0.00,,2013-05-09 07:52:00,
2013-05-09 04:02:00,53.0,-99.9,-100.00,North,-999,-999.0,-999.0,-999,0.00,,,0.00,,2013-05-09 08:02:00,
2013-05-09 04:11:00,53.0,-99.9,-100.00,North,-999,-999.0,-999.0,-999,0.00,,,0.00,,2013-05-09 08:11:00,
2013-05-09 04:42:00,53.0,-99.9,-100.00,North,-999,-999.0,-999.0,-999,0.00,,,0.00,,2013-05-09 08:42:00,
2013-05-09 04:52:00,53.0,-99.9,-100.00,North,-999,-999.0,-999.0,-999,0.00,,,0.00,,2013-05-09 08:52:00,
2013-05-09 05:02:00,53.0,-99.9,-100.00,North,-999,-999.0,-999.0,-999,0.00,,,0.00,,2013-05-09 09:02:00,
2013-05-09 05:12:00,53.0,-99.9,-100.00,North,-999,-999.0,-999.0,-999,0.00,,,0.00,,2013-05-09 09:12:00,
2013-05-09 05:32:00,54.0,-99.9,-100.00,North,-999,-999.0,-999.0,-999,0.00,,,0.00,,2013-05-09 09:32:00,
2013-05-09 05:43:00,54.0,-99.9,-100.00,North,-999,-999.0,-999.0,-999,0.00,,,0.00,,2013-05-09 09:43:00,
2013-05-09 05:53:00,54.0,-99.9,-100.00,North,-999,-999.0,-999.0,-999,0.00,,,0.00,,2013-05-09 09:53:00,
2013-05-09 06:03:00,54.0,-99.9,-100.00,North,-999,-999.0,-999.0,-999,0.00,,,0.00,,2013-05-09 10:03:00,
2013-05-09 06:13:00,54.0,-99.9,-100.00,North,-999,-999.0,-999.0,-999,0.00,,,0.00,,2013-05-09 10:13:00,
2013-05-09 06:33:00,54.0,-99.9,-100.00,North,-999,-999.0,-999.0,-999,0.05,,,0.05,,2013-05-09 10:33:00,
2013-05-09 06:42:00,54.0,-99.9,-100.00,North,-999,-999.0,-999.0,-999,0.05,,,0.05,,2013-05-09 10:42:00,
2013-05-09 06:53:00,54.0,-99.9,-100.00,North,-999,-999.0,-999.0,-999,0.05,,,0.05,,2013-05-09 10:53:00,
2013-05-09 07:03:00,54.0,-99.9,-100.00,North,-999,-999.0,-999.0,-999,0.05,,,0.05,,2013-05-09 11:03:00,
2013-05-09 07:12:00,54.0,-99.9,-100.00,North,-999,-999.0,-999.0,-999,0.05,,,0.05,,2013-05-09 11:12:00,
2013-05-09 07:32:00,54.0,-99.9,-100.00,North,-999,-999.0,-999.0,-999,0.07,,,0.12,,2013-05-09 11:32:00,
2013-05-09 07:42:00,54.0,-99.9,-100.00,North,-999,-999.0,-999.0,-999,0.07,,,0.12,,2013-05-09 11:42:00,
2013-05-09 07:52:00,54.0,-99.9,-100.00,North,-999,-999.0,-999.0,-999,0.07,,,0.12,,2013-05-09 11:52:00,
2013-05-09 08:02:00,54.0,-99.9,-100.00,North,-999,-999.0,-999.0,-999,0.07,,,0.12,,2013-05-09 12:02:00,
2013-05-09 08:12:00,54.0,-99.9,-100.00,North,-999,-999.0,-999.0,-999,0.07,,,0.12,,2013-05-09 12:12:00,
2013-05-09 08:32:00,57.0,-99.9,-100.00,North,-999,-999.0,-999.0,-999,0.00,,,0.12,,2013-05-09 12:32:00,
2013-05-09 08:43:00,57.0,-99.9,-100.00,North,-999,-999.0,-999.0,-999,0.00,,,0.12,,2013-05-09 12:43:00,
2013-05-09 08:52:00,57.0,-99.9,-100.00,North,-999,-999.0,-999.0,-999,0.00,,,0.12,,2013-05-09 12:52:00,
2013-05-09 09:02:00,57.0,-99.9,-100.00,North,-999,-999.0,-999.0,-999,0.00,,,0.12,,2013-05-09 13:02:00,
2013-05-09 09:12:00,57.0,-99.9,-100.00,North,-999,-999.0,-999.0,-999,0.00,,,0.12,,2013-05-09 13:12:00,
2013-05-09 09:32:00,61.0,-99.9,-100.00,North,-999,-999.0,-999.0,-999,0.00,,,0.12,,2013-05-09 13:32:00,
2013-05-09 09:42:00,61.0,-99.9,-100.00,North,-999,-999.0,-999.0,-999,0.00,,,0.12,,2013-05-09 13:42:00,
2013-05-09 09:52:00,61.0,-99.9,-100.00,North,-999,-999.0,-999.0,-999,0.00,,,0.12,,2013-05-09 13:52:00,
2013-05-09 10:02:00,61.0,-99.9,-100.00,North,-999,-999.0,-999.0,-999,0.00,,,0.12,,2013-05-09 14:02:00,
2013-05-09 10:11:00,61.0,-99.9,-100.00,North,-999,-999.0,-999.0,-999,0.00,,,0.12,,2013-05-09 14:11:00,
2013-05-09 10:42:00,64.0,-99.9,-100.00,North,-999,-999.0,-999.0,-999,0.00,,,0.12,,2013-05-09 14:42:00,
2013-05-09 10:52:00,64.0,-99.9,-100.00,North,-999,-999.0,-999.0,-999,0.00,,,0.12,,2013-05-09 14:52:00,
2013-05-09 11:02:00,64.0,-99.9,-100.00,North,-999,-999.0,-999.0,-999,0.00,,,0.12,,2013-05-09 15:02:00,
2013-05-09 11:12:00,64.0,-99.9,-100.00,North,-999,-999.0,-999.0,-999,0.00,,,0.12,,2013-05-09 15:12:00,
2013-05-09 11:43:00,67.0,-99.9,-100.00,North,-999,-999.0,-999.0,-999,0.00,,,0.12,,2013-05-09 15:43:00,
2013-05-09 11:53:00,67.0,-99.9,-100.00,North,-999,-999.0,-999.0,-999,0.00,,,0.12,,2013-05-09 15:53:00,
2013-05-09 12:03:00,67.0,-99.9,-100.00,North,-999,-999.0,-999.0,-999,0.00,,,0.12,,2013-05-09 16:03:00,
2013-05-09 12:13:00,67.0,-99.9,-100.00,North,-999,-999.0,-999.0,-999,0.00,,,0.12,,2013-05-09 16:13:00,
2013-05-09 12:33:00,70.0,-99.9,-100.00,North,-999,-999.0,-999.0,-999,0.00,,,0.12,,2013-05-09 16:33:00,
2013-05-09 12:42:00,70.0,-99.9,-100.00,North,-999,-999.0,-999.0,-999,0.00,,,0.12,,2013-05-09 16:42:00,
2013-05-09 12:53:00,70.0,-99.9,-100.00,North,-999,-999.0,-999.0,-999,0.00,,,0.12,,2013-05-09 16:53:00,
2013-05-09 13:03:00,70.0,-99.9,-100.00,North,-999,-999.0,-999.0,-999,0.00,,,0.12,,2013-05-09 17:03:00,
2013-05-09 13:12:00,70.0,-99.9,-100.00,North,-999,-999.0,-999.0,-999,0.00,,,0.12,,2013-05-09 17:12:00,
2013-05-09 13:42:00,64.0,-99.9,-100.00,North,-999,-999.0,-999.0,-999,0.00,,,0.12,,2013-05-09 17:42:00,
2013-05-09 13:56:00,64.0,-99.9,-100.00,North,-999,-999.0,-999.0,-999,0.00,,,0.12,,2013-05-09 17:56:00,
2013-05-09 14:02:00,64.0,-99.9,-100.00,North,-999,-999.0,-999.0,-999,0.00,,,0.12,,2013-05-09 18:02:00,
2013-05-09 14:12:00,64.0,-99.9,-100.00,North,-999,-999.0,-999.0,-999,0.00,,,0.12,,2013-05-09 18:12:00,
2013-05-09 14:32:00,64.0,-99.9,-100.00,North,-999,-999.0,-999.0,-999,0.01,,,0.13,,2013-05-09 18:32:00,
2013-05-09 14:42:00,64.0,-99.9,-100.00,North,-999,-999.0,-999.0,-999,0.01,,,0.13,,2013-05-09 18:42:00,
2013-05-09 14:53:00,64.0,-99.9,-100.00,North,-999,-999.0,-999.0,-999,0.01,,,0.13,,2013-05-09 18:53:00,
2013-05-09 15:01:00,64.0,-99.9,-100.00,North,-999,-999.0,-999.0,-999,0.01,,,0.13,,2013-05-09 19:01:00,
2013-05-09 15:12:00,64.0,-99.9,-100.00,North,-999,-999.0,-999.0,-999,0.01,,,0.13,,2013-05-09 19:12:00,
2013-05-09 15:32:00,61.0,-99.9,-100.00,North,-999,-999.0,-999.0,-999,0.04,,,0.17,,2013-05-09 19:32:00,
2013-05-09 15:42:00,61.0,-99.9,-100.00,North,-999,-999.0,-999.0,-999,0.04,,,0.17,,2013-05-09 19:42:00,
2013-05-09 15:52:00,61.0,-99.9,-100.00,North,-999,-999.0,-999.0,-999,0.04,,,0.17,,2013-05-09 19:52:00,
2013-05-09 16:02:00,61.0,-99.9,-100.00,North,-999,-999.0,-999.0,-999,0.04,,,0.17,,2013-05-09 20:02:00,
2013-05-09 16:11:00,61.0,-99.9,-100.00,North,-999,-999.0,-999.0,-999,0.04,,,0.17,,2013-05-09 20:11:00,
2013-05-09 16:32:00,63.0,-99.9,-100.00,North,-999,-999.0,-999.0,-999,0.00,,,0.17,,2013-05-09 20:32:00,
2013-05-09 16:42:00,63.0,-99.9,-100.00,North,-999,-999.0,-999.0,-999,0.00,,,0.17,,2013-05-09 20:42:00,
2013-05-09 16:52:00,63.0,-99.9,-100.00,North,-999,-999.0,-999.0,-999,0.00,,,0.17,,2013-05-09 20:52:00,
2013-05-09 17:02:00,63.0,-99.9,-100.00,North,-999,-999.0,-999.0,-999,0.00,,,0.17,,2013-05-09 21:02:00,
2013-05-09 17:12:00,63.0,-99.9,-100.00,North,-999,-999.0,-999.0,-999,0.00,,,0.17,,2013-05-09 21:12:00,
2013-05-09 17:33:00,64.0,-99.9,-100.00,North,-999,-999.0,-999.0,-999,0.00,,,0.17,,2013-05-09 21:33:00,
2013-05-09 17:43:00,64.0,-99.9,-100.00,North,-999,-999.0,-999.0,-999,0.00,,,0.17,,2013-05-09 21:43:00,
2013-05-09 17:53:00,64.0,-99.9,-100.00,North,-999,-999.0,-999.0,-999,0.00,,,0.17,,2013-05-09 21:53:00,
2013-05-09 18:03:00,64.0,-99.9,-100.00,North,-999,-999.0,-999.0,-999,0.00,,,0.17,,2013-05-09 22:03:00,
2013-05-09 18:13:00,64.0,-99.9,-100.00,North,-999,-999.0,-999.0,-999,0.00,,,0.17,,2013-05-09 22:13:00,
2013-05-09 18:42:00,62.0,-99.9,-100.00,North,-999,-999.0,-999.0,-999,0.00,,,0.17,,2013-05-09 22:42:00,
2013-05-09 18:53:00,62.0,-99.9,-100.00,North,-999,-999.0,-999.0,-999,0.00,,,0.17,,2013-05-09 22:53:00,
2013-05-09 19:03:00,62.0,-99.9,-100.00,North,-999,-999.0,-999.0,-999,0.00,,,0.17,,2013-05-09 23:03:00,
2013-05-09 19:12:00,62.0,-99.9,-100.00,North,-999,-999.0,-999.0,-999,0.00,,,0.17,,2013-05-09 23:12:00,
2013-05-09 19:32:00,60.0,-99.9,-100.00,North,-999,-999.0,-999.0,-999,0.00,,,0.17,,2013-05-09 23:32:00,
2013-05-09 19:43:00,60.0,-99.9,-100.00,North,-999,-999.0,-999.0,-999,0.00,,,0.17,,2013-05-09 23:43:00,
2013-05-09 19:53:00,60.0,-99.9,-100.00,North,-999,-999.0,-999.0,-999,0.00,,,0.17,,2013-05-09 23:53:00,
2013-05-09 20:02:00,60.0,-99.9,-100.00,North,-999,-999.0,-999.0,-999,0.00,,,0.17,,2013-05-10 00:02:00,
2013-05-09 20:11:00,60.0,-99.9,-100.00,North,-999,-999.0,-999.0,-999,0.00,,,0.17,,2013-05-10 00:11:00,
2013-05-09 20:32:00,59.0,-99.9,-100.00,North,-999,-999.0,-999.0,-999,0.01,,,0.18,,2013-05-10 00:32:00,
2013-05-09 20:42:00,59.0,-99.9,-100.00,North,-999,-999.0,-999.0,-999,0.01,,,0.18,,2013-05-10 00:42:00,
2013-05-09 20:52:00,59.0,-99.9,-100.00,North,-999,-999.0,-999.0,-999,0.01,,,0.18,,2013-05-10 00:52:00,
2013-05-09 21:01:00,59.0,-99.9,-100.00,North,-999,-999.0,-999.0,-999,0.01,,,0.18,,2013-05-10 01:01:00,
2013-05-09 21:11:00,59.0,-99.9,-100.00,North,-999,-999.0,-999.0,-999,0.01,,,0.18,,2013-05-10 01:11:00,
2013-05-09 21:32:00,57.0,-99.9,-100.00,North,-999,-999.0,-999.0,-999,0.05,,,0.23,,2013-05-10 01:32:00,
2013-05-09 21:42:00,57.0,-99.9,-100.00,North,-999,-999.0,-999.0,-999,0.05,,,0.23,,2013-05-10 01:42:00,
2013-05-09 21:52:00,57.0,-99.9,-100.00,North,-999,-999.0,-999.0,-999,0.05,,,0.23,,2013-05-10 01:52:00,
2013-05-09 22:02:00,57.0,-99.9,-100.00,North,-999,-999.0,-999.0,-999,0.05,,,0.23,,2013-05-10 02:02:00,
2013-05-09 22:12:00,57.0,-99.9,-100.00,North,-999,-999.0,-999.0,-999,0.05,,,0.23,,2013-05-10 02:12:00,
2013-05-09 22:32:00,57.0,-99.9,-100.00,North,-999,-999.0,-999.0,-999,0.03,,,0.26,,2013-05-10 02:32:00,
2013-05-09 22:42:00,57.0,-99.9,-100.00,North,-999,-999.0,-999.0,-999,0.03,,,0.26,,2013-05-10 02:42:00,
2013-05-09 22:53:00,57.0,-99.9,-100.00,North,-999,-999.0,-999.0,-999,0.03,,,0.26,,2013-05-10 02:53:00,
2013-05-09 23:01:00,57.0,-99.9,-100.00,North,-999,-999.0,-999.0,-999,0.03,,,0.26,,2013-05-10 03:01:00,
2013-05-09 23:11:00,57.0,-99.9,-100.00,North,-999,-999.0,-999.0,-999,0.03,,,0.26,,2013-05-10 03:11:00,
2013-05-09 23:33:00,56.0,-99.9,-100.00,North,-999,-999.0,-999.0,-999,0.04,,,0.30,,2013-05-10 03:33:00,
2013-05-09 23:43:00,56.0,-99.9,-100.00,North,-999,-999.0,-999.0,-999,0.04,,,0.30,,2013-05-10 03:43:00,
2013-05-09 23:53:00,56.0,-99.9,-100.00,North,-999,-999.0,-999.0,-999,0.04,,,0.30,,2013-05-10 03:53:00,